一网星座-0248星 (ONEWEB-0248 )

导读

ONEWEB-0248是英国OneWeb星座项目中的一颗低轨通信卫星,于2021年5月28日发射升空。该卫星运行在约1200公里的近地轨道,属于OneWeb一期星座组网卫星,采用"弯管式"设计,依托全球布设的关口站实现信号转发。作为低轨卫星互联网星座的组成部分,它可为全球偏远地区、海洋等提供低延迟、高带宽的互联网接入服务,同时也具备潜在的军事应用价值,且接近寿命末期时会自动离轨,符合空间碎片防控规范。

基本信息
目录编号:
48798
目录名称:
ONEWEB-0248
国际标识:
2021-045AH
轨道中心:
EARTH
卫星名称:
一网星座-0248星
卫星全名:
一网星座-0248星 (ONEWEB-0248 )
卫星状态:
在轨 (已飞行1841 天)
发射日期:
2021-05-28 UTC
国别 :
英国 (GB)
星等 :
--
轨道信息
数据来源 国际轨道数据 AOE轨道数据
星历时间 2026-06-12T13:52:29+0800
15小时前
查看轨道信息
2026-06-09T09:00:00+0800
3天前
查看轨道信息
半长轴 7579.913km 7579.92km
偏心率 0.0001655 0.0001925
轨道倾角 87.901° 87.900°
近地点辐角 113.470° 119.930°
升交点赤经 260.174° 260.812°
平近点角 246.661° 199.015°
近地点 1200.521km 1200.323km
远地点 1203.031km 1203.243km
周期 109.460分钟 109.460分钟
每日圈数 13.155472 13.155456
详细信息
平衡模式:
三轴稳定
覆盖范围:
全球
运营商:
一网卫星公司
运营商所在国:
英国
制造商(研发单位):
一网卫星公司
制造商所在国:
英国
使用方式:
暂无
卫星简介
OneWeb卫星网络由648颗重约125公斤的微型卫星组成,运行在1200公里的轨道上。 每颗卫星都能够提供至少每秒8千兆位的吞吐量,以使用其高吞吐量的Ku频段有效载荷为家庭和移动平台提供互联网接入。该卫星仍在工作。
2D轨道图
3D轨道图
轨道高度分析图
轨道倾角分析图
轨道综合分析图
查看轨道综合分析图